Погода в Косолапове

Россия / Республика Марий Эл     56°55′33″N   49°36′00″E
темп.,
°C
ветер,
м/с
пор.,
м/с
влажн.,
%
обл.,
%
осадки,
мм/ч
давл.,
гПа
погр.,
м
10 августа, ср
ср1000:00+17зюз22935 0.8 101836
03:00+16вюв1192100 0.9 101811
06:00+18зюз2387100 0.0 1018110
09:00+21зсз347391 0.1 1018520
12:00+24зсз346128 0.0 10181220
15:00+23сз656498 0.1 1018849
18:00+19ссз577450 0.0 1019631
21:00+14с41178100 0.0 1021427
11 августа, чт
чт1100:00+12ссз388798 0.0 1022208
03:00+10сз38939 0.0 1022171
06:00+12сз4107962 0.0 1023348
09:00+17сз69600 0.0 1024906
12:00+20ссз575212 0.0 10241602
15:00+21сз56462 0.0 10231941
18:00+19с226210 0.0 102332
21:00+14ююз22731 0.0 102417
12 августа, пт
пт1200:00+13зюз337310 0.0 102440
03:00+12зюз3680100 0.0 102490
06:00+14з387652 0.0 1024228
09:00+19з4764100 0.0 1023464
12:00+22з674969 0.0 10231567
15:00+23з684681 0.0 10211591
18:00+20зюз48625 0.0 1021250
21:00+16зюз410694 0.0 1021169
13 августа, сб
сб1300:00+15з411740 0.0 1021188
03:00+14з49775 0.0 1021165
06:00+16зсз387935 0.0 1021202
09:00+21сз466232 0.0 1022642
12:00+24сз57465 0.0 10221494
15:00+24ссз56455 0.0 10221797
18:00+20с3663100 0.0 1022169
21:00+16св227177 0.0 102320
14 августа, вс
вс1400:00+13в117642 0.0 102411
03:00+12в11785 0.0 102510
06:00+15в11695 0.0 102547
09:00+20вюв105172 0.0 1025525
12:00+23з114231 0.0 10241581
15:00+23ссз22415 0.0 10231668
18:00+21всв225712 0.0 102315
21:00+17ююв2263100 0.0 102311